Вернуться в каталог

STARLINK-11207

АктивенСвязьVLEO
NORAD 60933·PAYLOAD·🇺🇸 United States

Запущен Aug 31, 2024 с Vandenberg Space Force Base

Loading…

Ближайшие Пролёты (ближайшие 24 часа)

TLE

СвежийSource: CelesTrak SupGP

Эпоха: Sep 14, 2026, 22:19 UTC

1 60933C 24155K   26257.93034722 -.00051165  00000+0 -42150-3 0  2571
2 60933  53.1564 128.1003 0001229  88.0634  82.7282 15.69732991    17

Отслеживайте STARLINK-11207 в реальном времени с AllMySat

Download on the App Store